Skip Page Navigation
NASA JPL Caltech
NASA Logo - Jet Propulsion Laboratory + View the NASA Portal
+ Center for Near-Earth Object Studies
JPL Home Earth Solar System Stars & Galaxies Technology
JPL Solar System Dynamics
BODIES ORBITS EPHEMERIDES TOOLS PHYSICAL DATA DISCOVERY FAQ SITE MAP
JPL Small-Body Database Browser
Search: [ help ]  
160451 (2005 UO496)
Classification: Main-belt Asteroid          SPK-ID: 2160451
Ephemeris | Orbit Diagram | Orbital Elements | Mission Design | Physical Parameters | Discovery Circumstances ]

[ show orbit diagram ]
Orbital Elements at Epoch 2459200.5 (2020-Dec-17.0) TDB
Reference: JPL 19 (heliocentric ecliptic J2000)
 Element Value Uncertainty (1-sigma)   Units 
e .1496791217969388 4.1639e-08  
a 2.662134719731652 2.4424e-08 au
q 2.263668732777078 1.149e-07 au
i 12.90471448959086 4.7138e-06 deg
node 107.3069603077727 2.0835e-05 deg
peri 155.0877002672384 3.1467e-05 deg
M 295.1235758836283 3.0185e-05 deg
tp 2459486.409031706378
(2021-Sep-28.90903171)
0.00013537 TDB
period 1586.512401325804
4.34
2.1834e-05
5.978e-08
d
yr
n .2269128181406953 3.1228e-09 deg/d
Q 3.060600706686225 2.808e-08 au
  Orbit Determination Parameters
   # obs. used (total)      486  
   data-arc span      7705 days (21.10 yr)  
   first obs. used      1999-04-10  
   last obs. used      2020-05-14  
   planetary ephem.      DE431  
   SB-pert. ephem.      SB431-N16  
   condition code      0  
   norm. resid. RMS      .57565  
   source      ORB  
   producer      Otto Matic  
   solution date      2020-Nov-12 12:27:31  

Additional Information
 Earth MOID = 1.25227 au 
 Jupiter MOID = 2.06867 au 
 T_jup = 3.333 
[ show covariance matrix ]

Ephemeris | Orbit Diagram | Orbital Elements | Mission Design | Physical Parameters | Discovery Circumstances ]

Physical Parameter Table
Parameter Symbol Value Units Sigma Reference Notes
absolute magnitude H 15.48   n/a E2021B55  

160451 (2005 UO496)          Discovered 2005-Oct-26 by NEAT at Palomar
Reference: 20070730/Numbers.arcLast Updated: 2007-08-06
Ephemeris | Orbit Diagram | Orbital Elements | Mission Design | Physical Parameters | Discovery Circumstances ]
ABOUT SSD CREDITS/AWARDS PRIVACY/COPYRIGHT GLOSSARY LINKS
FirstGov 2021-Apr-11 11:18 UT
(server date/time)  
NASA Home Page
Site Manager:   Ryan S. Park
Webmaster  Alan B. Chamberlin